When you browse on this site, cookies collect data to enhance your experience and personalize the content and advertising you see.
Visit our Privacy Policy to learn more. By continuing to use the site, you agree to this use of cookies and data.
  • In Schweiz
  • Länderverzeichnis
  • Für 7 Tage
  • Wassertemperatur
  • Satellitenkarten
  • Wetterkarte
  • Widgets
  • user-avatar
    Anmelden

    Stündliche Wetter Xiulin

    Heute, 26 Mai, Sonntag

    Zeit Temperatur Niederschläge Wind Luftdruck Luftfeuchtigkeit
    00:00 +25°C° 4.7 mm 2 m/S 749 mmHg 96%
    01:00 +25°C° 0 mm 2 m/S 748 mmHg 96%
    02:00 +25°C° 0.2 mm 2 m/S 748 mmHg 96%
    03:00 +24°C° 0.2 mm 2 m/S 748 mmHg 97%
    04:00 +24°C° 0.2 mm 1 m/S 748 mmHg 97%
    05:00 +25°C° 0 mm 2 m/S 749 mmHg 93%
    06:00 +26°C° 0 mm 2 m/S 749 mmHg 90%
    07:00 +27°C° 0 mm 2 m/S 750 mmHg 87%
    08:00 +28°C° 0 mm 2 m/S 750 mmHg 80%
    09:00 +29°C° 0 mm 2 m/S 750 mmHg 74%
    10:00 +31°C° 0 mm 2 m/S 750 mmHg 67%
    11:00 +32°C° 0 mm 2 m/S 749 mmHg 62%
    12:00 +34°C° 0 mm 2 m/S 749 mmHg 57%
    13:00 +35°C° 0 mm 2 m/S 748 mmHg 53%
    14:00 +35°C° 0 mm 2 m/S 748 mmHg 51%
    15:00 +35°C° 0 mm 2 m/S 748 mmHg 50%
    16:00 +36°C° 0 mm 2 m/S 748 mmHg 49%
    17:00 +34°C° 0 mm 2 m/S 748 mmHg 54%
    18:00 +32°C° 0 mm 2 m/S 748 mmHg 59%
    19:00 +31°C° 0 mm 1 m/S 748 mmHg 64%
    20:00 +30°C° 0 mm 1 m/S 749 mmHg 66%
    21:00 +29°C° 0 mm 1 m/S 750 mmHg 69%
    22:00 +29°C° 0 mm 1 m/S 750 mmHg 72%
    23:00 +28°C° 0 mm 1 m/S 750 mmHg 72%

    Morgen, 27 Mai, Montag

    Zeit Temperatur Niederschläge Wind Luftdruck Luftfeuchtigkeit
    00:00 +28°C° 0 mm 1 m/S 751 mmHg 73%
    01:00 +28°C° 0 mm 1 m/S 751 mmHg 74%
    02:00 +28°C° 0 mm 3 m/S 751 mmHg 66%
    03:00 +27°C° 0 mm 4 m/S 751 mmHg 58%
    04:00 +27°C° 0 mm 6 m/S 752 mmHg 50%
    05:00 +27°C° 0 mm 7 m/S 753 mmHg 47%
    06:00 +26°C° 0 mm 7 m/S 753 mmHg 43%
    07:00 +26°C° 0 mm 8 m/S 754 mmHg 40%
    08:00 +27°C° 0 mm 9 m/S 755 mmHg 38%
    09:00 +28°C° 0 mm 9 m/S 755 mmHg 35%
    10:00 +31°C° 0 mm 9 m/S 756 mmHg 33%
    11:00 +31°C° 0 mm 9 m/S 756 mmHg 33%
    12:00 +32°C° 0 mm 8 m/S 756 mmHg 32%
    13:00 +32°C° 0 mm 8 m/S 755 mmHg 32%
    14:00 +32°C° 0 mm 7 m/S 755 mmHg 35%
    15:00 +32°C° 0 mm 7 m/S 755 mmHg 39%
    16:00 +32°C° 0 mm 6 m/S 755 mmHg 42%
    17:00 +29°C° 0 mm 6 m/S 755 mmHg 46%
    18:00 +28°C° 0 mm 5 m/S 756 mmHg 50%
    19:00 +27°C° 0 mm 4 m/S 756 mmHg 54%
    20:00 +26°C° 0 mm 4 m/S 757 mmHg 55%
    21:00 +25°C° 0 mm 4 m/S 758 mmHg 56%
    22:00 +25°C° 0 mm 4 m/S 758 mmHg 57%
    23:00 +23°C° 0 mm 4 m/S 758 mmHg 56%

    übermorgen, 28 Mai, Dienstag

    Zeit Temperatur Niederschläge Wind Luftdruck Luftfeuchtigkeit
    00:00 +23°C° 0 mm 4 m/S 758 mmHg 56%
    01:00 +22°C° 0 mm 4 m/S 758 mmHg 56%
    02:00 +22°C° 0 mm 4 m/S 758 mmHg 56%
    03:00 +21°C° 0 mm 4 m/S 758 mmHg 57%
    04:00 +21°C° 0 mm 5 m/S 758 mmHg 57%
    05:00 +21°C° 0 mm 5 m/S 759 mmHg 57%
    06:00 +22°C° 0 mm 5 m/S 759 mmHg 58%
    07:00 +22°C° 0 mm 5 m/S 760 mmHg 58%
    08:00 +25°C° 0 mm 5 m/S 760 mmHg 54%
    09:00 +26°C° 0 mm 5 m/S 760 mmHg 50%
    10:00 +27°C° 0 mm 5 m/S 760 mmHg 46%
    11:00 +27°C° 0 mm 5 m/S 760 mmHg 43%
    12:00 +28°C° 0 mm 5 m/S 759 mmHg 41%
    13:00 +29°C° 0 mm 5 m/S 759 mmHg 39%
    14:00 +28°C° 0 mm 5 m/S 758 mmHg 39%
    15:00 +28°C° 0 mm 5 m/S 758 mmHg 39%
    16:00 +28°C° 0 mm 5 m/S 758 mmHg 39%
    17:00 +27°C° 0 mm 4 m/S 758 mmHg 42%
    18:00 +25°C° 0 mm 4 m/S 758 mmHg 46%
    19:00 +24°C° 0 mm 3 m/S 759 mmHg 49%
    20:00 +22°C° 0 mm 3 m/S 759 mmHg 50%
    21:00 +22°C° 0 mm 3 m/S 759 mmHg 50%
    22:00 +21°C° 0 mm 3 m/S 760 mmHg 51%
    23:00 +21°C° 0 mm 3 m/S 759 mmHg 52%

    29 Mai, Mittwoch

    Zeit Temperatur Niederschläge Wind Luftdruck Luftfeuchtigkeit
    00:00 +20°C° 0 mm 2 m/S 759 mmHg 53%
    01:00 +20°C° 0 mm 2 m/S 758 mmHg 55%
    02:00 +20°C° 0 mm 2 m/S 758 mmHg 55%
    03:00 +19°C° 0 mm 2 m/S 758 mmHg 56%
    04:00 +19°C° 0 mm 2 m/S 757 mmHg 56%
    05:00 +20°C° 0 mm 2 m/S 757 mmHg 56%
    06:00 +21°C° 0 mm 2 m/S 758 mmHg 56%
    07:00 +23°C° 0 mm 2 m/S 758 mmHg 56%
    08:00 +24°C° 0 mm 2 m/S 758 mmHg 52%
    09:00 +25°C° 0 mm 2 m/S 757 mmHg 48%
    10:00 +26°C° 0 mm 2 m/S 757 mmHg 44%
    11:00 +27°C° 0 mm 2 m/S 757 mmHg 42%
    12:00 +27°C° 0 mm 1 m/S 756 mmHg 41%
    13:00 +28°C° 0 mm 1 m/S 755 mmHg 40%
    14:00 +28°C° 0 mm 1 m/S 755 mmHg 38%
    15:00 +29°C° 0 mm 1 m/S 754 mmHg 37%
    16:00 +29°C° 0 mm 1 m/S 754 mmHg 35%
    17:00 +28°C° 0 mm 1 m/S 754 mmHg 39%
    18:00 +27°C° 0 mm 1 m/S 754 mmHg 44%
    19:00 +25°C° 0 mm 2 m/S 754 mmHg 48%
    20:00 +25°C° 0 mm 1 m/S 755 mmHg 49%
    21:00 +25°C° 0 mm 1 m/S 755 mmHg 49%
    22:00 +25°C° 0 mm 1 m/S 755 mmHg 50%
    23:00 +25°C° 0 mm 1 m/S 755 mmHg 51%

    30 Mai, Donnerstag

    Zeit Temperatur Niederschläge Wind Luftdruck Luftfeuchtigkeit
    00:00 +24°C° 0 mm 1 m/S 754 mmHg 51%
    01:00 +24°C° 0 mm 1 m/S 754 mmHg 52%
    02:00 +24°C° 0 mm 1 m/S 754 mmHg 54%
    03:00 +23°C° 0 mm 1 m/S 754 mmHg 56%
    04:00 +23°C° 0 mm 1 m/S 754 mmHg 59%
    05:00 +24°C° 0 mm 1 m/S 754 mmHg 58%
    06:00 +25°C° 0 mm 2 m/S 754 mmHg 57%
    07:00 +26°C° 0 mm 2 m/S 755 mmHg 57%
    08:00 +27°C° 0 mm 2 m/S 754 mmHg 56%
    09:00 +29°C° 0 mm 3 m/S 754 mmHg 55%
    10:00 +30°C° 0 mm 3 m/S 754 mmHg 53%
    11:00 +30°C° 0 mm 3 m/S 753 mmHg 53%
    12:00 +31°C° 0 mm 3 m/S 753 mmHg 53%
    13:00 +31°C° 0 mm 3 m/S 752 mmHg 53%
    14:00 +30°C° 0 mm 3 m/S 752 mmHg 57%
    15:00 +29°C° 0 mm 3 m/S 752 mmHg 61%
    16:00 +29°C° 0 mm 2 m/S 752 mmHg 65%
    17:00 +28°C° 0 mm 2 m/S 752 mmHg 67%
    18:00 +27°C° 0 mm 1 m/S 752 mmHg 68%
    19:00 +27°C° 0 mm 1 m/S 753 mmHg 70%
    20:00 +26°C° 0 mm 1 m/S 753 mmHg 70%
    21:00 +26°C° 0 mm 2 m/S 754 mmHg 71%
    22:00 +25°C° 0 mm 2 m/S 754 mmHg 71%
    23:00 +25°C° 0 mm 2 m/S 754 mmHg 71%

    31 Mai, Freitag

    Zeit Temperatur Niederschläge Wind Luftdruck Luftfeuchtigkeit
    00:00 +25°C° 0 mm 2 m/S 754 mmHg 71%
    01:00 +25°C° 0 mm 2 m/S 753 mmHg 72%
    02:00 +25°C° 0 mm 2 m/S 753 mmHg 72%
    03:00 +25°C° 0 mm 2 m/S 753 mmHg 73%
    04:00 +25°C° 0 mm 1 m/S 753 mmHg 73%
    05:00 +26°C° 0 mm 2 m/S 753 mmHg 71%
    06:00 +27°C° 0 mm 2 m/S 754 mmHg 69%
    07:00 +28°C° 0 mm 2 m/S 754 mmHg 66%
    08:00 +28°C° 0 mm 2 m/S 754 mmHg 65%
    09:00 +29°C° 0 mm 2 m/S 754 mmHg 63%
    10:00 +29°C° 0 mm 1 m/S 754 mmHg 62%
    11:00 +30°C° 0.1 mm 1 m/S 753 mmHg 58%
    12:00 +31°C° 0.1 mm 1 m/S 753 mmHg 54%
    13:00 +33°C° 0.1 mm 1 m/S 752 mmHg 50%
    14:00 +31°C° 0.5 mm 2 m/S 752 mmHg 59%
    15:00 +29°C° 0.5 mm 2 m/S 752 mmHg 67%
    16:00 +27°C° 0.5 mm 2 m/S 752 mmHg 76%
    17:00 +27°C° 0 mm 2 m/S 752 mmHg 78%
    18:00 +27°C° 0 mm 2 m/S 752 mmHg 80%
    19:00 +26°C° 0 mm 1 m/S 752 mmHg 82%
    20:00 +26°C° 0 mm 1 m/S 753 mmHg 82%
    21:00 +25°C° 0 mm 1 m/S 753 mmHg 83%
    22:00 +23°C° 0 mm 0 m/S 753 mmHg 83%
    23:00 +23°C° 0 mm 0 m/S 753 mmHg 83%
    Mehr zeigen